Location: Unspecified
(0.0000°N, 0.0000°E)
Time: 07:01:56
(UTC+00:00)

S-56A Canister/Altair - Pass Details

Date: 29 May 2024
Orbit: 637 x 2489 km, 38.9° (Epoch: 22 June)

Event Time Altitude Azimuth Distance (km) Brightness Sun altitude
Rises 22:14:29 0° 205° (SSW) 4,686 - -56.7°
Reaches altitude 10° 22:17:55 10° 193° (SSW) 3,975 - -57.4°
Maximum altitude 22:27:04 29° 137° (SE) 3,295 - -59.0°
Drops below altitude 10° 22:38:28 10° 83° (E) 5,046 - -60.9°
Sets 22:43:27 0° 73° (ENE) 6,142 - -61.7°
